Location: Newark
(33.9035°S, 18.4112°E)
Time: 01:45:24
(UTC+00:00)

STARLINK-1078 - Pass Details

Date: 18 January 2020
Orbit: 348 x 351 km, 53.0° (Epoch: 17 February)

Event Time Altitude Azimuth Distance (km) Brightness Sun altitude
Exits shadow 03:17:53 - 336° (NNW) 1,611 5.5 -7.3°
Reaches altitude 10° 03:18:37 10° 339° (NNW) 1,317 5.1 -7.2°
Maximum altitude 03:21:22 38° 49° (NE) 563 3.9 -6.7°
Drops below altitude 10° 03:24:10 10° 120° (ESE) 1,334 7.5 -6.2°
Sets 03:26:16 0° 128° (SE) 2,185 9.1 -5.8°
